Theta_e
308 307 307 307 307 307 307 308 308 308 308 308 308 309 310 312 312 317 323 323 324 322 321 320 320 320 321 319 319 318 321 339 343 346 346 339 345 344 345 345 342 341 343 340 338
308 309 309 309 308 308 307 307 307 307 307 307 309 310 312 312 314 321 324 328 323 320 319 319 319 320 318 318 319 319 327 337 339 342 340 342 343 348 348 347 346 343 338 337 336
309 309 309 309 309 309 309 309 308 308 308 310 311 312 313 313 321 325 326 324 324 320 319 320 321 321 320 319 331 338 340 346 344 343 340 336 340 343 345 346 343 341 338 336 335
308 309 310 311 311 311 311 311 311 311 311 313 313 313 313 319 325 324 319 323 320 319 319 319 319 320 319 325 341 349 347 347 341 341 342 345 341 343 342 341 337 336 335 333 332
309 309 310 310 310 311 311 312 312 312 312 313 312 312 314 320 322 326 318 316 317 318 319 319 320 320 325 343 341 343 344 344 344 342 341 340 342 343 341 336 334 334 333 332 330
309 309 310 311 310 311 312 312 312 312 312 312 312 312 321 323 327 320 319 319 319 320 321 320 321 320 331 333 339 338 340 343 342 342 340 341 342 340 338 334 334 332 331 330 328
309 309 311 311 311 311 313 313 313 313 313 313 313 314 319 317 324 319 321 322 322 322 321 321 320 320 325 333 332 336 337 342 344 342 343 339 343 342 336 334 333 332 330 327 326
310 310 310 310 311 311 311 312 313 313 313 314 314 316 319 324 327 321 322 322 322 322 321 323 322 319 329 330 332 332 336 336 333 339 336 336 342 341 334 334 333 331 329 326 325
312 310 310 311 311 311 312 312 312 313 314 314 319 320 324 328 320 323 323 322 322 323 323 322 321 318 321 329 328 331 335 336 336 335 335 337 346 338 334 334 334 330 327 325 323
312 311 311 311 311 312 313 316 316 316 322 318 322 322 323 326 321 322 323 323 321 320 321 320 315 316 314 324 322 335 336 336 337 335 334 341 340 336 333 335 333 330 327 325 325
313 312 311 311 312 312 316 326 324 323 324 325 326 322 325 325 325 322 323 322 322 320 321 320 319 318 317 318 326 334 334 335 335 337 331 331 333 334 333 334 332 331 329 326 325
313 312 312 312 312 312 314 322 328 326 322 324 327 325 327 327 322 321 322 321 322 321 321 321 321 320 321 331 333 334 337 337 336 335 336 338 337 336 336 335 332 330 327 327 326
313 312 312 312 312 315 316 320 325 325 323 327 326 325 324 323 323 323 320 320 321 321 321 321 323 325 327 326 327 327 328 329 336 334 333 335 339 339 337 335 334 331 329 328 328
313 312 312 312 317 319 320 325 322 325 327 329 324 324 324 324 324 324 323 323 324 323 325 327 327 327 327 327 325 325 326 326 330 331 339 334 345 337 333 335 336 332 329 327 327
313 312 312 312 314 314 324 321 321 326 338 333 322 325 323 323 324 324 325 325 326 329 329 331 330 330 330 329 327 327 327 326 327 325 332 337 341 340 332 338 337 332 330 325 323
312 312 312 312 314 320 322 322 325 333 340 334 323 323 323 322 324 325 326 326 327 331 329 331 330 331 331 330 327 326 324 323 319 323 337 335 336 334 337 337 333 328 326 322 321
311 311 311 313 319 321 319 326 329 337 333 335 323 323 321 322 324 326 330 328 327 328 328 330 333 331 329 330 325 322 321 322 322 330 342 335 335 332 335 335 329 325 323 322 321
311 311 312 313 316 317 320 326 335 334 337 335 336 321 322 330 330 334 333 331 330 329 328 331 336 332 332 331 328 325 322 323 328 324 340 334 341 335 333 330 326 325 322 320 316
318 322 323 317 317 320 320 328 332 336 335 332 329 332 332 332 334 336 335 336 333 330 333 332 334 332 331 324 324 325 326 323 323 327 337 337 336 334 333 331 327 322 322 314 310
321 323 326 323 325 324 323 327 333 335 330 331 335 333 333 332 331 335 337 332 334 331 328 332 332 330 329 327 325 324 324 326 325 332 341 335 333 337 335 331 325 323 319 312 309
325 325 329 328 328 318 323 327 334 328 330 331 332 331 331 332 333 335 335 331 332 333 327 328 326 328 328 328 324 323 324 324 326 329 333 336 337 329 329 327 324 320 316 310 308
329 328 329 326 318 319 323 327 327 329 328 331 329 329 330 329 332 331 331 330 330 330 328 329 326 332 333 329 323 322 324 323 324 331 328 329 334 325 324 321 316 316 310 308 307
324 327 325 323 327 327 327 330 327 327 326 327 326 325 324 329 329 330 329 328 328 329 330 328 327 323 327 325 324 323 324 322 320 323 329 331 331 323 322 318 317 312 310 309 307
326 327 325 319 322 326 327 328 327 325 325 325 326 325 329 331 329 330 329 329 329 329 333 328 329 327 328 327 325 325 323 322 321 328 331 330 329 323 320 318 312 310 309 309 308
326 327 328 327 324 328 326 328 328 329 327 326 330 330 329 329 329 330 332 328 330 328 328 329 332 330 326 325 324 324 324 323 324 326 329 327 324 321 319 315 312 310 309 310 308
327 330 328 329 322 324 323 328 331 332 331 332 330 327 324 325 326 326 327 332 335 331 330 326 328 332 332 326 325 326 322 321 321 321 322 322 323 319 317 313 312 312 311 310 309
326 327 330 331 323 326 327 330 331 330 330 330 328 327 326 326 324 323 322 323 328 330 329 328 327 330 333 331 330 328 328 326 324 323 320 320 319 318 314 313 311 310 310 310 309
Wind_Speed
11 11 10 10 12 11 12 12 12 12 13 15 16 17 20 24 25 9 5 4 3 4 5 6 9 14 10 4 6 4 4 6 8 9 7 3 3 2 2 9 14 8 18 20 17
10 10 10 11 12 12 12 12 12 12 13 14 15 16 20 24 21 9 7 7 7 7 4 4 5 5 2 4 2 5 5 4 5 5 7 7 1 3 5 14 12 12 21 22 23
10 10 10 11 12 12 12 12 11 12 12 13 14 16 19 21 5 6 6 13 9 7 6 9 9 1 2 5 5 5 5 14 8 20 15 5 4 7 9 8 9 10 14 20 22
11 10 10 10 11 11 11 10 11 11 12 12 14 16 19 5 1 4 5 6 8 6 7 9 7 8 6 8 6 20 14 9 12 15 10 6 6 12 14 8 13 13 17 20 18
11 10 10 10 11 11 11 10 11 11 12 12 13 15 6 4 8 7 4 5 5 5 5 1 5 2 11 21 29 29 12 13 17 16 13 16 12 12 15 14 16 17 20 16 16
10 9 9 9 10 9 9 9 10 10 10 10 10 12 3 3 4 3 3 4 6 4 4 6 3 3 8 4 5 13 21 21 17 17 17 15 15 5 12 14 13 13 12 12 14
9 8 8 9 9 9 8 8 9 8 8 8 8 7 2 10 1 6 3 7 10 11 3 5 3 7 4 6 7 16 15 15 17 18 8 23 10 11 14 14 15 12 10 10 12
9 8 8 10 9 9 9 9 9 7 7 7 8 4 6 7 10 8 8 10 13 18 15 11 9 5 6 5 2 3 6 4 8 10 4 4 8 16 16 15 7 9 8 6 6
9 8 8 9 9 9 9 8 8 8 9 7 4 1 9 12 4 10 13 10 12 17 15 14 3 4 4 4 5 7 3 3 6 6 7 7 13 14 13 14 12 10 8 4 3
10 8 8 8 7 8 8 7 6 6 5 3 3 5 6 3 4 12 12 16 7 8 6 4 5 4 3 4 5 5 3 1 4 4 21 22 21 12 6 7 9 8 8 6 5
9 7 7 7 7 7 6 3 3 1 2 8 4 5 5 4 11 10 13 9 3 5 2 4 3 5 12 8 5 5 4 6 6 7 18 19 17 10 7 9 7 7 7 6 4
9 7 6 7 8 9 8 2 6 4 8 11 13 7 16 15 3 5 13 5 3 7 1 4 7 12 4 10 14 6 3 5 16 24 22 15 11 6 8 7 6 7 6 7 3
7 7 6 7 10 7 6 12 16 20 1 9 6 5 5 10 6 8 9 4 6 6 7 9 13 3 8 6 7 3 3 2 14 17 20 24 9 5 5 5 5 7 4 5 4
6 6 6 6 5 5 8 11 27 16 4 6 2 6 3 3 5 8 16 5 3 9 2 5 4 11 9 6 6 8 5 7 15 8 5 9 5 3 0 2 10 8 6 5 5
5 5 6 5 9 4 11 23 32 2 2 6 6 4 2 4 3 3 4 3 4 8 10 2 5 8 9 3 5 2 2 5 4 7 6 6 5 2 4 3 6 7 6 6 6
3 4 5 7 9 16 19 31 4 5 3 6 4 3 2 2 4 4 2 5 4 8 6 2 2 4 2 2 7 1 9 9 5 5 5 8 4 3 2 6 6 5 7 7 6
2 3 6 6 4 11 25 6 5 3 1 6 6 5 4 4 2 2 7 8 3 5 6 5 6 5 5 7 7 12 8 4 5 5 2 4 7 3 4 6 7 9 7 5 4
1 3 6 13 10 16 12 5 4 3 5 5 6 5 4 3 10 10 5 7 10 6 4 5 8 6 6 1 2 5 6 5 2 3 4 5 3 2 1 8 7 6 6 4 7
1 1 4 7 9 7 5 4 5 3 4 6 5 6 3 7 7 7 4 6 5 6 4 4 4 4 5 6 4 4 3 2 4 5 5 1 1 3 7 7 8 7 6 7 7
2 3 5 10 5 1 5 4 3 3 5 11 6 8 7 3 4 5 4 6 5 10 2 5 1 4 5 7 8 6 2 5 4 2 3 2 1 1 8 9 7 8 7 7 5
2 3 2 11 6 5 3 5 5 3 6 5 4 5 5 5 4 3 2 3 5 4 8 3 4 7 6 4 3 6 5 5 5 3 4 4 2 5 6 7 9 7 6 9 7
3 2 2 14 3 1 2 3 3 7 9 6 6 6 3 5 6 5 5 5 8 4 4 4 4 2 1 4 4 4 4 4 5 1 3 4 1 4 11 9 8 8 9 7 7
2 2 4 5 2 3 6 4 5 7 7 5 7 5 6 6 5 6 6 4 8 4 2 3 4 3 7 7 8 7 4 4 6 3 2 4 3 5 10 8 5 10 8 7 6
3 3 5 4 1 2 3 1 5 5 6 7 5 9 9 12 11 4 4 1 1 3 5 6 2 5 5 4 3 8 10 5 7 5 0 1 8 5 6 6 8 8 7 6 6
3 1 3 2 5 4 1 2 8 6 6 9 9 6 6 5 5 5 4 2 5 6 5 4 2 4 8 17 18 15 13 12 9 5 5 3 5 8 8 8 8 9 6 6 6
3 3 5 3 4 4 7 7 16 8 7 6 11 9 10 5 3 3 4 4 1 3 2 3 1 2 8 16 19 17 15 12 13 9 7 6 3 5 5 9 9 9 6 6 6
6 4 4 5 6 6 4 3 4 8 8 5 7 6 9 5 4 3 3 3 2 6 2 3 3 2 4 3 7 10 9 11 10 9 2 5 2 5 6 8 6 6 5 6 5
Wind_Direction
293 293 297 302 300 302 300 300 301 303 309 313 317 325 327 326 325 314 260 246 301 255 279 287 287 288 285 225 216 131 75 130 153 138 216 200 181 293 30 76 49 54 66 81 73
300 301 302 305 300 301 296 294 297 303 307 312 320 329 328 328 326 276 251 251 262 271 297 329 312 322 280 245 117 86 94 63 185 95 126 122 3 78 91 88 79 69 68 70 70
316 308 305 301 301 296 292 295 299 301 306 312 323 330 328 327 321 256 305 231 246 263 296 305 297 271 304 24 349 354 107 113 75 115 119 115 73 16 111 71 61 91 82 73 65
318 307 305 304 298 295 295 297 298 302 306 314 328 329 328 346 324 299 314 218 235 258 303 331 28 356 340 72 70 90 66 95 122 109 111 108 78 71 64 78 86 84 81 79 69
313 308 304 299 296 291 293 294 295 300 303 321 328 331 345 354 254 303 261 226 231 252 269 57 359 19 55 105 96 106 112 119 129 121 126 125 113 98 83 91 80 82 75 75 76
310 309 300 299 294 296 296 299 298 301 310 327 327 336 11 306 271 257 204 241 245 261 277 141 202 182 105 74 111 153 133 129 139 140 125 108 125 90 108 100 80 64 65 71 73
316 303 300 296 295 299 298 299 300 307 319 324 327 337 323 241 239 215 232 276 286 274 266 281 169 84 160 108 154 157 121 132 153 151 131 127 72 93 106 81 78 68 54 56 66
316 300 298 298 299 302 299 297 300 307 305 318 322 323 253 297 310 220 230 277 279 278 268 302 309 109 132 156 148 211 73 39 168 147 94 317 99 103 103 85 74 91 76 64 50
316 301 302 301 307 307 301 303 299 299 291 297 313 108 274 314 238 217 218 250 291 303 291 299 357 137 27 96 25 2 141 179 19 64 104 93 130 112 114 127 159 132 119 106 58
315 301 300 303 309 314 312 306 289 290 297 266 262 324 269 255 181 204 226 244 257 288 359 4 42 18 30 91 246 224 153 315 160 67 90 100 109 104 124 135 146 145 140 148 161
313 299 301 302 312 321 329 314 12 335 195 202 209 229 274 255 180 206 223 249 288 32 310 325 80 238 257 217 162 150 115 208 76 100 68 94 116 120 149 179 142 127 151 162 183
303 291 298 303 313 318 311 229 220 128 307 228 236 255 260 268 171 269 216 165 161 238 295 7 242 241 259 93 113 116 97 93 60 87 98 116 118 137 172 159 157 153 160 163 150
292 282 295 306 315 314 274 260 306 301 266 299 220 206 232 169 216 228 156 177 213 252 208 206 245 232 102 96 107 125 131 52 129 90 124 125 88 99 74 108 141 158 162 136 98
277 271 281 306 317 322 276 318 345 297 53 284 308 269 264 130 260 210 201 162 242 239 169 103 36 78 61 39 80 41 326 37 127 166 185 211 120 95 131 41 117 88 94 120 122
267 256 261 262 299 295 288 315 328 171 29 278 230 232 98 163 229 303 189 176 33 16 84 315 46 54 65 66 93 162 346 32 57 71 116 38 90 96 198 92 116 123 164 181 153
263 242 250 266 278 282 325 327 3 49 259 319 222 197 317 346 254 235 28 27 104 81 35 80 227 85 180 89 47 114 39 35 46 85 55 321 115 312 243 155 156 178 209 166 202
293 237 239 240 249 318 329 12 46 108 309 290 228 168 201 279 192 102 61 31 47 58 21 342 334 326 57 24 22 56 50 3 4 29 81 297 54 215 226 188 170 174 183 173 161
325 248 250 252 264 295 342 46 71 234 245 254 256 269 126 347 28 45 56 46 24 53 72 58 2 14 1 28 119 77 125 140 265 189 175 16 82 211 158 107 139 143 127 137 64
30 306 269 239 253 298 65 50 221 248 304 319 61 66 54 20 110 79 66 17 40 24 88 58 342 359 18 30 66 336 27 175 128 65 85 119 89 121 116 130 122 119 126 96 109
338 310 267 171 218 71 69 242 251 215 315 49 78 25 24 20 65 76 45 333 19 24 69 348 336 14 350 48 24 100 238 28 10 86 96 68 292 188 156 171 140 146 135 142 116
63 40 263 185 201 54 161 240 280 295 77 81 70 60 34 47 90 88 58 34 12 348 73 41 82 315 42 13 99 20 26 57 108 79 141 150 259 229 178 161 158 163 128 141 133
69 52 102 156 47 62 212 215 329 23 48 63 69 63 78 41 33 60 69 39 349 16 28 14 126 77 186 303 112 94 105 104 114 41 63 112 6 139 134 155 149 144 124 128 132
99 257 48 167 127 309 303 284 81 63 24 47 47 32 13 29 79 95 70 18 31 57 72 333 9 40 344 355 0 72 23 108 99 91 353 113 176 122 130 161 165 131 132 133 120
80 38 331 39 179 202 291 303 114 68 53 63 65 65 60 36 34 81 126 112 100 68 63 91 77 150 173 227 140 63 47 44 101 77 45 78 130 137 177 145 117 119 122 121 120
39 279 188 316 336 2 48 66 56 41 37 32 17 46 112 63 42 38 33 128 34 344 43 91 62 46 59 82 72 63 73 64 76 156 97 161 132 195 185 144 145 131 134 133 136
85 46 354 314 328 45 27 9 83 40 48 21 95 60 66 85 125 20 31 39 136 354 49 30 317 36 64 78 69 65 62 73 77 71 84 116 76 105 90 90 116 129 140 114 116
19 18 101 317 347 71 328 74 137 104 19 65 119 82 43 349 278 241 200 233 216 148 163 86 109 71 128 106 56 44 66 77 64 40 84 63 122 118 79 97 116 135 125 118 130